Volver al catálogo

DMSP 5D-2 F12

USA 106

ActivoMeteoSSO
NORAD 23233·PAYLOAD·🇺🇸 United States

Lanzado Aug 29, 1994 desde Vandenberg Space Force Base

Loading…

Próximos Pases (próximas 24 horas)

TLE

ActualizadoSource: Space-Track

Época: Sep 14, 2026, 14:05 UTC

1 23233U 94057A   26257.58705729  .00000024  00000-0  33746-4 0  9996
2 23233  98.6598 305.4168 0011301  22.5388 337.6280 14.16082442654625

Sigue DMSP 5D-2 F12 en tiempo real con AllMySat

Download on the App Store